Amateur Radio Satellites - All Passes

Search period start: 25 May 2013 08:31
Search period end: 26 May 2013 08:31
Location: Blue Mountain Vista Observatory, 40.6992°N, 75.9422°W

Satellite Date Start Highest point End Downlink Frequencies (MHz)
Time Altitude Azimuth
JAS-1B 25 May 08:49:55 08:55:51 69° 102° (ESE) 09:01:28 435.800 - 435.900 CW/SSB
AO-7 25 May 08:50:11 08:54:15 15° 314° (NW) 08:58:19 29.400 - 29.500 MHz
Sapphire 25 May 08:50:21 08:54:29 22° 314° (NW) 08:58:38 437.095 MHz 1200 baud AX-25 AFSK
Hamsat 25 May 09:03:43 09:07:22 26° 291° (WNW) 09:11:01 145.90 MHz
SO-67 25 May 09:40:57 09:43:43 21° 290° (WNW) 09:46:28 435.3500 MHz FM
SO-50 25 May 09:42:22 09:46:20 25° 314° (NW) 09:50:16 436.795 FM
ISS 25 May 09:48:23 09:50:51 19° 228° (SW) 09:53:18 145.800 FM
HO-68 25 May 09:51:02 09:57:28 35° 97° (E) 10:03:51 435.675 MHz FM
JAS-2 25 May 10:19:28 10:25:49 42° 96° (E) 10:31:24 435.800 - 435.900 CW/SSB, 435.910 FM
KITSAT 1 25 May 10:24:32 10:28:05 14° 261° (W) 10:31:38 435.175 FM
JAS-1B 25 May 10:42:18 10:45:47 16° 303° (WNW) 10:49:10 435.800 - 435.900 CW/SSB
UOSAT-12 25 May 10:46:38 10:50:52 41° 116° (ESE) 10:55:08 437.025 FM, 437.400 FM
MaSat-1 25 May 10:50:53 10:53:52 32° 57° (ENE) 10:56:23 437.345 MHz
Oscar 11 25 May 11:08:03 11:12:26 78° 284° (WNW) 11:16:48 145.825 FM, Beacon 2401.500 USB
OPAL 25 May 11:31:02 11:36:00 65° 104° (ESE) 11:40:54 ?
HO-68 25 May 11:38:31 11:45:14 46° 294° (WNW) 11:51:57 435.675 MHz FM
JAS-2 25 May 12:04:46 12:10:38 32° 297° (WNW) 12:15:54 435.800 - 435.900 CW/SSB, 435.910 FM
PANSAT 25 May 12:10:25 12:12:24 14° 178° (S) 12:14:22 not established
UOSAT-12 25 May 12:27:29 12:31:11 24° 314° (NW) 12:34:56 437.025 FM, 437.400 FM
Oscar 19 25 May 12:39:37 12:42:15 14° 60° (ENE) 12:44:53 437.125 CW, 437.150 USB
Uribyol 2 25 May 12:42:27 12:44:47 13° 59° (ENE) 12:47:08 436.500 FM
Saudisat 1A 25 May 12:49:50 12:52:47 17° 41° (NE) 12:55:42 436.775 MHz
OPAL 25 May 13:11:24 13:14:21 16° 301° (WNW) 13:17:18 ?
Oscar 16 25 May 13:17:01 13:21:42 36° 69° (ENE) 13:26:26 437.025 USB, Beacon 2401.1428
AO-27 25 May 13:32:41 13:37:24 37° 69° (ENE) 13:42:08 436.795 MHz FM
ITAMSAT 1 25 May 13:38:29 13:43:17 40° 69° (ENE) 13:48:08 435.822 SSB
PANSAT 25 May 13:51:08 13:52:00 11° 191° (SSW) 13:52:51 not established
AO-Echo 25 May 13:58:53 14:02:20 20° 65° (ENE) 14:05:44 ?
Oscar 19 25 May 14:15:44 14:20:56 77° 257° (WSW) 14:26:10 437.125 CW, 437.150 USB
Gurwin Techsat 1B 25 May 14:16:28 14:18:25 12° 58° (ENE) 14:20:23 435.225 FM
Uribyol 2 25 May 14:18:23 14:23:33 83° 256° (WSW) 14:28:48 436.500 FM
Saudisat 1A 25 May 14:28:28 14:33:00 72° 240° (WSW) 14:37:26 436.775 MHz
Oscar 16 25 May 14:56:42 15:01:06 28° 265° (W) 15:05:32 437.025 USB, Beacon 2401.1428
AO-27 25 May 15:12:39 15:16:58 27° 265° (W) 15:21:20 436.795 MHz FM
ITAMSAT 1 25 May 15:18:47 15:22:55 24° 266° (W) 15:27:06 435.822 SSB
PCSat 25 May 15:20:51 15:25:31 28° 50° (NE) 15:30:09 145.825 MHz
TMSAT-1 25 May 15:29:15 15:34:03 37° 69° (ENE) 15:38:53 436.925 FM
Uosat F 25 May 15:31:01 15:35:58 70° 74° (ENE) 15:40:58 435.120 FM
AO-Echo 25 May 15:36:14 15:40:50 43° 261° (W) 15:45:22 ?
RS-15 25 May 15:43:58 15:55:26 52° 111° (ESE) 16:06:27 29.354 - 29.394 USB, Beacon 29.352 USB
Gurwin Techsat 1B 25 May 15:52:17 15:57:35 88° 75° (ENE) 16:02:56 435.225 FM
Sapphire 25 May 15:53:40 15:58:55 47° 55° (NE) 16:04:07 437.095 MHz 1200 baud AX-25 AFSK
AO-7 25 May 16:01:32 16:09:00 39° 61° (ENE) 16:16:31 29.400 - 29.500 MHz
SO-50 25 May 16:33:30 16:37:44 36° 50° (NE) 16:41:53 436.795 FM
PCSat 25 May 17:03:58 17:09:07 45° 248° (WSW) 17:14:14 145.825 MHz
TMSAT-1 25 May 17:09:34 17:14:02 28° 265° (W) 17:18:32 436.925 FM
Uosat F 25 May 17:13:05 17:15:16 13° 270° (W) 17:17:28 435.120 FM
Gurwin Techsat 1B 25 May 17:37:12 17:38:15 11° 272° (W) 17:39:18 435.225 FM
Sapphire 25 May 17:37:43 17:42:02 25° 253° (WSW) 17:46:20 437.095 MHz 1200 baud AX-25 AFSK
JAS-1B 25 May 17:47:41 17:51:13 13° 54° (NE) 17:54:33 435.800 - 435.900 CW/SSB
AO-7 25 May 17:53:41 18:01:36 49° 259° (W) 18:09:36 29.400 - 29.500 MHz
RS-15 25 May 17:56:23 18:07:56 52° 313° (NW) 18:19:04 29.354 - 29.394 USB, Beacon 29.352 USB
SO-50 25 May 18:14:29 18:18:10 25° 248° (WSW) 18:21:48 436.795 FM
Hamsat 25 May 18:22:14 18:25:16 20° 67° (ENE) 18:28:21 145.90 MHz
STRAND 1 25 May 18:49:31 18:54:03 31° 96° (E) 18:58:34 ?
UOSAT-12 25 May 19:16:30 19:20:44 35° 50° (NE) 19:24:58 437.025 FM, 437.400 FM
JAS-1B 25 May 19:31:45 19:40:40 64° 71° (ENE) 19:48:13 435.800 - 435.900 CW/SSB
Hamsat 25 May 19:57:15 20:01:06 35° 263° (W) 20:05:01 145.90 MHz
RS-15 25 May 20:15:27 20:23:59 22° 344° (NNW) 20:32:16 29.354 - 29.394 USB, Beacon 29.352 USB
SO-67 25 May 20:15:38 20:19:09 59° 260° (W) 20:22:42 435.3500 MHz FM
HO-68 25 May 20:20:07 20:25:49 27° 59° (ENE) 20:31:31 435.675 MHz FM
STRAND 1 25 May 20:28:41 20:33:12 32° 293° (WNW) 20:37:43 ?
JAS-2 25 May 20:30:29 20:36:24 24° 60° (ENE) 20:42:17 435.800 - 435.900 CW/SSB, 435.910 FM
UOSAT-12 25 May 20:56:54 21:00:47 27° 247° (WSW) 21:04:40 437.025 FM, 437.400 FM
KITSAT 1 25 May 21:02:46 21:07:02 15° 100° (E) 21:11:19 435.175 FM
OPAL 25 May 21:09:39 21:12:33 15° 59° (ENE) 21:15:26 ?
JAS-1B 25 May 21:23:55 21:31:25 29° 265° (W) 21:38:05 435.800 - 435.900 CW/SSB
Oscar 11 25 May 22:02:54 22:07:13 80° 76° (ENE) 22:11:34 145.825 FM, Beacon 2401.500 USB
HO-68 25 May 22:05:57 22:13:00 62° 257° (WSW) 22:20:05 435.675 MHz FM
JAS-2 25 May 22:12:50 22:20:37 78° 257° (WSW) 22:28:28 435.800 - 435.900 CW/SSB, 435.910 FM
RS-15 25 May 22:33:15 22:41:58 24° 21° (NNE) 22:50:25 29.354 - 29.394 USB, Beacon 29.352 USB
OPAL 25 May 22:45:40 22:50:51 74° 255° (WSW) 22:56:00 ?
KITSAT 1 25 May 22:53:07 23:01:10 82° 118° (ESE) 23:09:18 435.175 FM
MaSat-1 25 May 23:43:59 23:45:09 11° 100° (E) 23:46:19 437.345 MHz
JAS-2 26 May 00:02:41 00:06:38 15° 274° (W) 00:10:38 435.800 - 435.900 CW/SSB, 435.910 FM
RS-15 26 May 00:46:13 00:57:17 62° 51° (NE) 01:08:01 29.354 - 29.394 USB, Beacon 29.352 USB
KITSAT 1 26 May 00:50:52 00:57:30 27° 320° (NW) 01:04:12 435.175 FM
ISS 26 May 00:54:07 00:56:25 18° 131° (SE) 00:58:43 145.800 FM
MaSat-1 26 May 01:19:45 01:26:44 69° 113° (ESE) 01:32:26 437.345 MHz
Oscar 16 26 May 01:31:01 01:33:07 12° 89° (E) 01:35:12 437.025 USB, Beacon 2401.1428
AO-27 26 May 01:47:42 01:50:08 13° 90° (E) 01:52:34 436.795 MHz FM
ITAMSAT 1 26 May 01:53:06 01:55:59 15° 91° (E) 01:58:51 435.822 SSB
AO-40 26 May 02:06:22 03:38:05 33° 232° (SW) 07:41:14 Beacon 2401.320
Oscar 19 26 May 02:28:02 02:32:52 39° 98° (E) 02:37:38 437.125 CW, 437.150 USB
ISS 26 May 02:29:37 02:32:51 51° 328° (NNW) 02:36:06 145.800 FM
Uribyol 2 26 May 02:31:48 02:36:38 37° 98° (E) 02:41:26 436.500 FM
KITSAT 1 26 May 02:54:26 02:56:23 11° 349° (N) 02:58:21 435.175 FM
RS-15 26 May 02:59:19 03:09:01 38° 253° (WSW) 03:18:36 29.354 - 29.394 USB, Beacon 29.352 USB
MaSat-1 26 May 03:04:04 03:09:05 23° 306° (NW) 03:13:24 437.345 MHz
Oscar 16 26 May 03:07:51 03:13:02 76° 286° (WNW) 03:18:10 437.025 USB, Beacon 2401.1428
AO-27 26 May 03:24:57 03:30:11 73° 286° (WNW) 03:35:23 436.795 MHz FM
ITAMSAT 1 26 May 03:30:45 03:35:57 66° 287° (WNW) 03:41:07 435.822 SSB
Uosat F 26 May 03:39:54 03:43:48 22° 94° (E) 03:47:40 435.120 FM
AO-Echo 26 May 03:43:15 03:47:59 59° 101° (E) 03:52:49 ?
TMSAT-1 26 May 03:46:43 03:49:38 15° 90° (E) 03:52:32 436.925 FM
Oscar 19 26 May 04:07:49 04:12:01 26° 294° (WNW) 04:16:10 437.125 CW, 437.150 USB
ISS 26 May 04:08:03 04:10:09 16° 347° (NNW) 04:12:16 145.800 FM
Gurwin Techsat 1B 26 May 04:09:09 04:14:04 37° 97° (E) 04:18:56 435.225 FM
Uribyol 2 26 May 04:11:34 04:15:57 28° 294° (WNW) 04:20:19 436.500 FM
Saudisat 1A 26 May 04:35:39 04:39:43 33° 114° (ESE) 04:43:50 436.775 MHz
KITSAT 1 26 May 04:52:34 04:56:20 14° 21° (NNE) 05:00:05 435.175 FM
Uosat F 26 May 05:18:02 05:22:45 42° 290° (WNW) 05:27:28 435.120 FM
AO-Echo 26 May 05:23:31 05:26:20 16° 297° (WNW) 05:29:11 ?
TMSAT-1 26 May 05:24:46 05:30:03 67° 286° (WNW) 05:35:18 436.925 FM
ISS 26 May 05:46:09 05:47:56 14° 8° (N) 05:49:42 145.800 FM
Gurwin Techsat 1B 26 May 05:49:24 05:53:53 28° 294° (WNW) 05:58:21 435.225 FM
AO-7 26 May 05:54:59 06:03:16 61° 104° (ESE) 06:11:30 29.400 - 29.500 MHz
PCSat 26 May 06:03:09 06:07:27 25° 107° (ESE) 06:11:45 145.825 MHz
STRAND 1 26 May 06:05:16 06:10:03 43° 70° (ENE) 06:14:53 ?
Saudisat 1A 26 May 06:15:22 06:19:24 30° 312° (NW) 06:23:29 436.775 MHz
Sapphire 26 May 06:35:18 06:40:24 45° 112° (ESE) 06:45:33 437.095 MHz 1200 baud AX-25 AFSK
KITSAT 1 26 May 06:46:53 06:54:27 40° 48° (NE) 07:01:57 435.175 FM
SO-50 26 May 06:51:05 06:53:11 13° 108° (ESE) 06:55:17 436.795 FM
JAS-1B 26 May 07:21:59 07:23:14 11° 87° (E) 07:24:28 435.800 - 435.900 CW/SSB
ISS 26 May 07:22:22 07:25:26 32° 27° (NNE) 07:28:29 145.800 FM
Hamsat 26 May 07:43:41 07:47:50 41° 98° (E) 07:51:59 145.90 MHz
SO-67 26 May 07:44:49 07:45:54 11° 91° (E) 07:46:58 435.3500 MHz FM
PCSat 26 May 07:45:22 07:50:34 46° 305° (NW) 07:55:48 145.825 MHz
STRAND 1 26 May 07:45:34 07:49:26 22° 266° (W) 07:53:20 ?
AO-7 26 May 07:48:29 07:55:33 32° 302° (WNW) 08:02:38 29.400 - 29.500 MHz
Sapphire 26 May 08:19:24 08:24:01 28° 311° (NW) 08:28:39 437.095 MHz 1200 baud AX-25 AFSK

Developed and maintained by Chris Peat, Heavens-Above GmbH. Please read the updated FAQ before sending e-mail. Imprint. DLR
